Time,TemperatureF,DewpointF,PressureIn,WindDirection,WindDirectionDegrees,WindSpeedMPH,WindSpeedGustMPH,Humidity,HourlyPrecipIn,Conditions,Clouds,dailyrainin,SoftwareType,DateUTC
2013-02-08 00:01:00,49.4,47.5,29.90,North,355,11.5,11.5,93,0.00,RA,,0.00,WeatherDisplay:10.37,2013-02-08 06:01:00,
2013-02-08 00:06:00,49.1,47.2,29.90,WNW,288,3.5,3.5,93,0.00,RA,,0.00,WeatherDisplay:10.37,2013-02-08 06:06:00,
2013-02-08 00:11:00,48.8,46.9,29.90,NNW,337,5.8,5.8,93,0.00,CLR,,0.00,WeatherDisplay:10.37,2013-02-08 06:11:00,
2013-02-08 00:16:00,48.6,46.4,29.90,NNW,327,6.9,6.9,92,0.00,CLR,,0.00,WeatherDisplay:10.37,2013-02-08 06:16:00,
2013-02-08 00:21:00,48.4,46.2,29.90,North,5,9.2,9.2,92,0.00,CLR,,0.00,WeatherDisplay:10.37,2013-02-08 06:21:00,
2013-02-08 00:26:00,48.2,46.0,29.91,NW,312,8.1,8.1,92,0.00,CLR,,0.00,WeatherDisplay:10.37,2013-02-08 06:26:00,
2013-02-08 00:31:00,48.1,45.6,29.91,North,5,10.4,10.4,91,0.00,CLR,,0.00,WeatherDisplay:10.37,2013-02-08 06:31:00,
2013-02-08 00:36:00,47.9,45.4,29.91,NNW,346,11.5,11.5,91,0.00,CLR,,0.00,WeatherDisplay:10.37,2013-02-08 06:36:00,
2013-02-08 00:41:00,47.7,44.9,29.91,NW,316,8.1,8.1,90,0.00,CLR,,0.00,WeatherDisplay:10.37,2013-02-08 06:41:00,
2013-02-08 00:46:00,47.6,44.8,29.91,NNW,329,5.0,5.0,90,0.00,CLR,,0.00,WeatherDisplay:10.37,2013-02-08 06:46:00,
2013-02-08 00:51:00,47.4,44.6,29.92,North,360,5.0,5.0,90,0.00,CLR,,0.00,WeatherDisplay:10.37,2013-02-08 06:51:00,
2013-02-08 00:56:00,47.2,44.4,29.91,NNW,348,5.8,5.8,90,0.00,CLR,,0.00,WeatherDisplay:10.37,2013-02-08 06:56:00,
2013-02-08 01:01:00,47.1,44.3,29.92,NNW,341,4.6,4.6,90,0.00,CLR,,0.00,WeatherDisplay:10.37,2013-02-08 07:01:00,
2013-02-08 01:07:00,47.0,44.2,29.92,NNE,17,6.9,6.9,90,0.00,CLR,,0.00,WeatherDisplay:10.37,2013-02-08 07:07:00,
2013-02-08 01:12:00,46.9,44.1,29.92,NNW,340,4.6,4.6,90,0.00,CLR,,0.00,WeatherDisplay:10.37,2013-02-08 07:12:00,
2013-02-08 01:17:00,46.8,44.0,29.92,NW,306,3.5,3.5,90,0.00,CLR,,0.00,WeatherDisplay:10.37,2013-02-08 07:17:00,
2013-02-08 01:22:00,46.7,43.9,29.92,NW,318,3.5,3.5,90,0.00,CLR,,0.00,WeatherDisplay:10.37,2013-02-08 07:22:00,
2013-02-08 01:27:00,46.3,43.2,29.93,North,355,5.8,5.8,89,0.00,CLR,,0.00,WeatherDisplay:10.37,2013-02-08 07:27:00,
2013-02-08 01:32:00,46.0,42.9,29.93,NW,317,6.9,6.9,89,0.00,CLR,,0.00,WeatherDisplay:10.37,2013-02-08 07:32:00,
2013-02-08 01:37:00,45.8,42.7,29.93,WNW,302,4.6,4.6,89,0.00,CLR,,0.00,WeatherDisplay:10.37,2013-02-08 07:37:00,
2013-02-08 01:42:00,45.6,42.5,29.94,NW,324,11.5,11.5,89,0.00,CLR,,0.00,WeatherDisplay:10.37,2013-02-08 07:42:00,
2013-02-08 01:47:00,45.4,42.6,29.94,NNW,329,4.6,4.6,90,0.00,CLR,,0.00,WeatherDisplay:10.37,2013-02-08 07:47:00,
2013-02-08 01:52:00,45.2,42.2,29.94,NNE,12,6.9,6.9,89,0.00,CLR,,0.00,WeatherDisplay:10.37,2013-02-08 07:52:00,
2013-02-08 01:57:00,44.9,41.6,29.95,North,355,8.1,8.1,88,0.00,CLR,,0.00,WeatherDisplay:10.37,2013-02-08 07:57:00,
2013-02-08 02:02:00,44.5,41.2,29.95,North,355,11.5,11.5,88,0.00,CLR,,0.00,WeatherDisplay:10.37,2013-02-08 08:02:00,
2013-02-08 02:07:00,44.3,41.0,29.95,NNW,346,8.1,8.1,88,0.00,CLR,,0.00,WeatherDisplay:10.37,2013-02-08 08:07:00,
2013-02-08 02:12:00,44.1,40.8,29.96,North,360,3.5,3.5,88,0.00,CLR,,0.00,WeatherDisplay:10.37,2013-02-08 08:12:00,
2013-02-08 02:17:00,43.9,40.6,29.96,NNW,344,6.9,6.9,88,0.00,CLR,,0.00,WeatherDisplay:10.37,2013-02-08 08:17:00,
2013-02-08 02:22:00,43.7,40.4,29.96,North,355,9.2,9.2,88,0.00,CLR,,0.00,WeatherDisplay:10.37,2013-02-08 08:22:00,
2013-02-08 02:27:00,43.5,40.2,29.96,NNW,348,8.1,8.1,88,0.00,CLR,,0.00,WeatherDisplay:10.37,2013-02-08 08:27:00,
2013-02-08 02:32:00,43.4,40.1,29.96,North,355,5.8,5.8,88,0.00,CLR,,0.00,WeatherDisplay:10.37,2013-02-08 08:32:00,
2013-02-08 02:37:00,43.4,40.1,29.96,NW,324,5.8,5.8,88,0.00,CLR,,0.00,WeatherDisplay:10.37,2013-02-08 08:37:00,
2013-02-08 02:42:00,43.3,40.0,29.96,North,360,6.9,6.9,88,0.00,CLR,,0.00,WeatherDisplay:10.37,2013-02-08 08:42:00,
2013-02-08 02:47:00,43.2,39.9,29.97,NNW,327,3.5,3.5,88,0.00,CLR,,0.00,WeatherDisplay:10.37,2013-02-08 08:47:00,
2013-02-08 02:52:00,43.1,40.1,29.97,North,355,8.1,8.1,89,0.00,CLR,,0.00,WeatherDisplay:10.37,2013-02-08 08:52:00,
2013-02-08 02:57:00,43.0,40.0,29.98,NNW,327,5.8,5.8,89,0.00,CLR,,0.00,WeatherDisplay:10.37,2013-02-08 08:57:00,
2013-02-08 03:02:00,42.8,39.8,29.98,North,360,6.9,6.9,89,0.00,CLR,,0.00,WeatherDisplay:10.37,2013-02-08 09:02:00,
2013-02-08 03:07:00,42.7,39.7,29.97,NNW,329,6.9,6.9,89,0.00,CLR,,0.00,WeatherDisplay:10.37,2013-02-08 09:07:00,
2013-02-08 03:12:00,42.6,39.6,29.97,NNW,333,11.5,11.5,89,0.00,CLR,,0.00,WeatherDisplay:10.37,2013-02-08 09:12:00,
2013-02-08 03:17:00,42.5,39.5,29.98,NW,310,11.5,11.5,89,0.00,CLR,,0.00,WeatherDisplay:10.37,2013-02-08 09:17:00,
2013-02-08 03:22:00,42.4,39.4,29.98,NNW,329,4.6,4.6,89,0.00,CLR,,0.00,WeatherDisplay:10.37,2013-02-08 09:22:00,
2013-02-08 03:27:00,42.4,39.4,29.98,North,9,6.9,6.9,89,0.00,CLR,,0.00,WeatherDisplay:10.37,2013-02-08 09:27:00,
2013-02-08 03:32:00,42.4,39.4,29.98,NNW,348,9.2,9.2,89,0.00,CLR,,0.00,WeatherDisplay:10.37,2013-02-08 09:32:00,
2013-02-08 03:37:00,42.3,39.0,29.99,NW,322,4.6,4.6,88,0.00,CLR,,0.00,WeatherDisplay:10.37,2013-02-08 09:37:00,
2013-02-08 03:42:00,42.3,39.0,29.99,NW,321,12.0,12.0,88,0.00,CLR,,0.00,WeatherDisplay:10.37,2013-02-08 09:42:00,
2013-02-08 03:47:00,42.3,39.0,29.99,NNW,338,8.1,8.1,88,0.00,CLR,,0.00,WeatherDisplay:10.37,2013-02-08 09:47:00,
2013-02-08 03:52:00,42.3,39.0,29.99,North,10,5.0,5.0,88,0.00,CLR,,0.00,WeatherDisplay:10.37,2013-02-08 09:52:00,
2013-02-08 03:57:00,42.3,39.0,30.00,NW,322,5.8,5.8,88,0.00,CLR,,0.00,WeatherDisplay:10.37,2013-02-08 09:57:00,
2013-02-08 04:02:00,42.2,38.9,30.00,NW,308,4.6,4.6,88,0.00,CLR,,0.00,WeatherDisplay:10.37,2013-02-08 10:02:00,
2013-02-08 04:07:00,42.1,38.8,30.00,NNE,16,8.1,8.1,88,0.00,CLR,,0.00,WeatherDisplay:10.37,2013-02-08 10:07:00,
2013-02-08 04:12:00,42.1,38.8,30.00,NNW,345,5.8,5.8,88,0.00,CLR,,0.00,WeatherDisplay:10.37,2013-02-08 10:12:00,
2013-02-08 04:17:00,42.0,38.4,30.01,North,355,8.0,8.0,87,0.00,CLR,,0.00,WeatherDisplay:10.37,2013-02-08 10:17:00,
2013-02-08 04:22:00,41.9,38.3,30.01,North,360,8.1,8.1,87,0.00,CLR,,0.00,WeatherDisplay:10.37,2013-02-08 10:22:00,
2013-02-08 04:27:00,41.7,37.8,30.01,NW,325,9.2,9.2,86,0.00,CLR,,0.00,WeatherDisplay:10.37,2013-02-08 10:27:00,
2013-02-08 04:32:00,41.5,37.6,30.02,NNW,344,9.0,9.0,86,0.00,CLR,,0.00,WeatherDisplay:10.37,2013-02-08 10:32:00,
2013-02-08 04:37:00,41.5,37.6,30.02,North,360,4.6,4.6,86,0.00,CLR,,0.00,WeatherDisplay:10.37,2013-02-08 10:37:00,
2013-02-08 04:42:00,41.3,37.4,30.03,NNE,26,6.9,6.9,86,0.00,CLR,,0.00,WeatherDisplay:10.37,2013-02-08 10:42:00,
2013-02-08 04:47:00,41.1,37.2,30.03,North,355,6.9,6.9,86,0.00,CLR,,0.00,WeatherDisplay:10.37,2013-02-08 10:47:00,
2013-02-08 04:52:00,40.9,37.0,30.04,North,355,9.0,9.0,86,0.00,CLR,,0.00,WeatherDisplay:10.37,2013-02-08 10:52:00,
2013-02-08 04:57:00,40.7,37.1,30.04,NNW,342,11.5,11.5,87,0.00,CLR,,0.00,WeatherDisplay:10.37,2013-02-08 10:57:00,
2013-02-08 05:02:00,40.6,37.0,30.04,NNW,329,6.9,6.9,87,0.00,CLR,,0.00,WeatherDisplay:10.37,2013-02-08 11:02:00,
2013-02-08 05:07:00,40.6,36.7,30.05,NNW,334,10.4,10.4,86,0.00,CLR,,0.00,WeatherDisplay:10.37,2013-02-08 11:07:00,
2013-02-08 05:12:00,40.5,36.9,30.05,NW,317,10.0,10.0,87,0.00,CLR,,0.00,WeatherDisplay:10.37,2013-02-08 11:12:00,
2013-02-08 05:17:00,40.5,36.9,30.05,North,5,9.2,9.2,87,0.00,CLR,,0.00,WeatherDisplay:10.37,2013-02-08 11:17:00,
2013-02-08 05:22:00,40.4,36.5,30.06,NNW,346,12.7,12.7,86,0.00,CLR,,0.00,WeatherDisplay:10.37,2013-02-08 11:22:00,
2013-02-08 05:27:00,40.3,36.7,30.06,NNW,336,6.9,6.9,87,0.00,CLR,,0.00,WeatherDisplay:10.37,2013-02-08 11:27:00,
2013-02-08 05:32:00,40.2,36.6,30.06,NNW,340,4.6,4.6,87,0.00,CLR,,0.00,WeatherDisplay:10.37,2013-02-08 11:32:00,
2013-02-08 05:37:00,40.1,36.5,30.06,North,349,11.5,11.5,87,0.00,CLR,,0.00,WeatherDisplay:10.37,2013-02-08 11:37:00,
2013-02-08 05:42:00,39.9,36.3,30.06,North,355,9.0,9.0,87,0.00,CLR,,0.00,WeatherDisplay:10.37,2013-02-08 11:42:00,
2013-02-08 05:47:00,39.7,36.1,30.07,NW,316,8.1,8.1,87,0.00,CLR,,0.00,WeatherDisplay:10.37,2013-02-08 11:47:00,
2013-02-08 05:52:00,39.6,36.0,30.07,North,355,6.9,6.9,87,0.00,CLR,,0.00,WeatherDisplay:10.37,2013-02-08 11:52:00,
2013-02-08 05:57:00,39.5,36.0,30.08,NNW,343,3.5,3.5,87,0.00,CLR,,0.00,WeatherDisplay:10.37,2013-02-08 11:57:00,
2013-02-08 06:02:00,39.3,35.8,30.08,NNW,338,15.0,15.0,87,0.00,CLR,,0.00,WeatherDisplay:10.37,2013-02-08 12:02:00,
2013-02-08 06:07:00,39.0,35.5,30.08,NNW,334,8.1,8.1,87,0.00,CLR,,0.00,WeatherDisplay:10.37,2013-02-08 12:07:00,
2013-02-08 06:12:00,38.9,35.4,30.09,NW,313,6.9,6.9,87,0.00,CLR,,0.00,WeatherDisplay:10.37,2013-02-08 12:12:00,
2013-02-08 06:18:00,38.8,35.6,30.09,NW,314,2.3,2.3,88,0.00,CLR,,0.00,WeatherDisplay:10.37,2013-02-08 12:18:00,
2013-02-08 06:23:00,38.7,35.5,30.09,NNW,335,3.5,3.5,88,0.00,CLR,,0.00,WeatherDisplay:10.37,2013-02-08 12:23:00,
2013-02-08 06:28:00,38.6,35.4,30.09,North,360,11.5,11.5,88,0.00,CLR,,0.00,WeatherDisplay:10.37,2013-02-08 12:28:00,
2013-02-08 06:33:00,38.4,35.4,30.10,NNW,341,4.6,4.6,89,0.00,CLR,,0.00,WeatherDisplay:10.37,2013-02-08 12:33:00,
2013-02-08 06:38:00,38.4,35.4,30.10,North,355,8.1,8.1,89,0.00,CLR,,0.00,WeatherDisplay:10.37,2013-02-08 12:38:00,
2013-02-08 06:43:00,38.3,35.3,30.10,NNW,338,5.0,5.0,89,0.00,CLR,,0.00,WeatherDisplay:10.37,2013-02-08 12:43:00,
2013-02-08 06:48:00,38.4,35.4,30.11,North,355,4.6,4.6,89,0.00,CLR,,0.00,WeatherDisplay:10.37,2013-02-08 12:48:00,
2013-02-08 06:53:00,38.4,35.4,30.11,NNW,338,3.5,3.5,89,0.00,CLR,,0.00,WeatherDisplay:10.37,2013-02-08 12:53:00,
2013-02-08 06:58:00,38.4,35.4,30.11,NNW,332,4.6,4.6,89,0.00,CLR,,0.00,WeatherDisplay:10.37,2013-02-08 12:58:00,
2013-02-08 07:03:00,38.4,35.4,30.11,NNW,347,4.6,4.6,89,0.00,CLR,,0.00,WeatherDisplay:10.37,2013-02-08 13:03:00,
2013-02-08 07:08:00,38.5,35.5,30.12,NW,311,8.1,8.1,89,0.00,CLR,,0.00,WeatherDisplay:10.37,2013-02-08 13:08:00,
2013-02-08 07:13:00,38.5,35.5,30.12,NNW,336,4.6,4.6,89,0.00,CLR,,0.00,WeatherDisplay:10.37,2013-02-08 13:13:00,
2013-02-08 07:18:00,38.6,35.6,30.13,North,355,5.8,5.8,89,0.00,CLR,,0.00,WeatherDisplay:10.37,2013-02-08 13:18:00,
2013-02-08 07:23:00,38.6,35.6,30.13,NW,312,8.1,8.1,89,0.00,CLR,,0.00,WeatherDisplay:10.37,2013-02-08 13:23:00,
2013-02-08 07:28:00,38.6,35.6,30.13,North,355,8.1,8.1,89,0.00,CLR,,0.00,WeatherDisplay:10.37,2013-02-08 13:28:00,
2013-02-08 07:33:00,38.7,35.7,30.14,North,355,3.5,3.5,89,0.00,CLR,,0.00,WeatherDisplay:10.37,2013-02-08 13:33:00,
2013-02-08 07:38:00,38.8,35.6,30.14,NW,321,6.0,6.0,88,0.00,CLR,,0.00,WeatherDisplay:10.37,2013-02-08 13:38:00,
2013-02-08 07:43:00,38.8,35.6,30.14,North,360,12.7,12.7,88,0.00,CLR,,0.00,WeatherDisplay:10.37,2013-02-08 13:43:00,
2013-02-08 07:48:00,38.8,35.6,30.15,North,5,7.0,7.0,88,0.00,CLR,,0.00,WeatherDisplay:10.37,2013-02-08 13:48:00,
2013-02-08 07:53:00,38.8,35.6,30.15,North,11,10.4,10.4,88,0.00,CLR,,0.00,WeatherDisplay:10.37,2013-02-08 13:53:00,
2013-02-08 07:58:00,38.7,35.5,30.15,NNW,347,8.1,8.1,88,0.00,CLR,,0.00,WeatherDisplay:10.37,2013-02-08 13:58:00,
2013-02-08 08:03:00,38.7,35.5,30.16,NNW,347,6.9,6.9,88,0.00,CLR,,0.00,WeatherDisplay:10.37,2013-02-08 14:03:00,
2013-02-08 08:08:00,38.6,35.4,30.16,North,350,5.0,5.0,88,0.00,CLR,,0.00,WeatherDisplay:10.37,2013-02-08 14:08:00,
2013-02-08 08:13:00,38.6,35.4,30.17,North,360,11.5,11.5,88,0.00,CLR,,0.00,WeatherDisplay:10.37,2013-02-08 14:13:00,
2013-02-08 08:18:00,38.6,35.1,30.17,WNW,302,11.5,11.5,87,0.00,CLR,,0.00,WeatherDisplay:10.37,2013-02-08 14:18:00,
2013-02-08 08:23:00,38.4,34.9,30.17,North,350,9.2,9.2,87,0.00,CLR,,0.00,WeatherDisplay:10.37,2013-02-08 14:23:00,
2013-02-08 08:28:00,38.3,34.5,30.18,WNW,286,10.4,10.4,86,0.00,CLR,,0.00,WeatherDisplay:10.37,2013-02-08 14:28:00,
2013-02-08 08:33:00,38.3,34.5,30.18,North,5,10.4,10.4,86,0.00,CLR,,0.00,WeatherDisplay:10.37,2013-02-08 14:33:00,
2013-02-08 08:38:00,38.2,34.4,30.18,NNW,346,9.2,9.2,86,0.00,CLR,,0.00,WeatherDisplay:10.37,2013-02-08 14:38:00,
2013-02-08 08:43:00,38.2,34.4,30.18,North,355,11.5,11.5,86,0.00,CLR,,0.00,WeatherDisplay:10.37,2013-02-08 14:43:00,
2013-02-08 08:48:00,38.2,34.4,30.18,WNW,297,10.0,10.0,86,0.00,CLR,,0.00,WeatherDisplay:10.37,2013-02-08 14:48:00,
2013-02-08 08:53:00,38.2,34.1,30.19,NNW,342,11.5,11.5,85,0.00,CLR,,0.00,WeatherDisplay:10.37,2013-02-08 14:53:00,
2013-02-08 08:58:00,38.0,33.9,30.19,WNW,301,12.7,12.7,85,0.00,CLR,,0.00,WeatherDisplay:10.37,2013-02-08 14:58:00,
2013-02-08 09:03:00,38.0,33.9,30.19,NNW,343,6.9,6.9,85,0.00,CLR,,0.00,WeatherDisplay:10.37,2013-02-08 15:03:00,
2013-02-08 09:08:00,37.9,33.8,30.19,NNE,13,3.5,3.5,85,0.00,CLR,,0.00,WeatherDisplay:10.37,2013-02-08 15:08:00,
2013-02-08 09:13:00,37.9,33.8,30.20,NNW,341,4.6,4.6,85,0.00,CLR,,0.00,WeatherDisplay:10.37,2013-02-08 15:13:00,
2013-02-08 09:18:00,38.0,33.9,30.20,North,360,6.9,6.9,85,0.00,CLR,,0.00,WeatherDisplay:10.37,2013-02-08 15:18:00,
2013-02-08 09:23:00,38.0,33.9,30.20,NNW,341,8.1,8.1,85,0.00,CLR,,0.00,WeatherDisplay:10.37,2013-02-08 15:23:00,
2013-02-08 09:28:00,38.0,33.9,30.20,North,355,5.8,5.8,85,0.00,CLR,,0.00,WeatherDisplay:10.37,2013-02-08 15:28:00,
2013-02-08 09:33:00,38.1,33.7,30.20,NNW,329,6.9,6.9,84,0.00,CLR,,0.00,WeatherDisplay:10.37,2013-02-08 15:33:00,
2013-02-08 09:38:00,38.0,33.9,30.20,North,351,5.8,5.8,85,0.00,CLR,,0.00,WeatherDisplay:10.37,2013-02-08 15:38:00,
2013-02-08 09:43:00,37.9,33.5,30.21,NNW,328,10.4,10.4,84,0.00,CLR,,0.00,WeatherDisplay:10.37,2013-02-08 15:43:00,
2013-02-08 09:48:00,37.9,33.8,30.21,North,360,3.5,3.5,85,0.00,CLR,,0.00,WeatherDisplay:10.37,2013-02-08 15:48:00,
2013-02-08 09:53:00,37.8,33.7,30.21,North,351,4.6,4.6,85,0.00,CLR,,0.00,WeatherDisplay:10.37,2013-02-08 15:53:00,
2013-02-08 09:58:00,37.7,33.9,30.22,NNW,342,3.5,3.5,86,0.00,CLR,,0.00,WeatherDisplay:10.37,2013-02-08 15:58:00,
2013-02-08 10:03:00,37.5,33.7,30.22,NNW,331,11.5,11.5,86,0.00,CLR,,0.00,WeatherDisplay:10.37,2013-02-08 16:03:00,
2013-02-08 10:08:00,37.3,33.5,30.22,NNW,331,7.0,7.0,86,0.00,CLR,,0.00,WeatherDisplay:10.37,2013-02-08 16:08:00,
2013-02-08 10:13:00,37.1,33.3,30.23,NW,315,6.0,6.0,86,0.00,CLR,,0.00,WeatherDisplay:10.37,2013-02-08 16:13:00,
2013-02-08 10:18:00,37.1,33.3,30.23,NNW,329,11.5,11.5,86,0.00,CLR,,0.00,WeatherDisplay:10.37,2013-02-08 16:18:00,
2013-02-08 10:23:00,37.1,33.3,30.23,North,355,3.5,3.5,86,0.00,CLR,,0.00,WeatherDisplay:10.37,2013-02-08 16:23:00,
2013-02-08 10:28:00,37.2,33.4,30.23,NNW,333,8.1,8.1,86,0.00,CLR,,0.00,WeatherDisplay:10.37,2013-02-08 16:28:00,
2013-02-08 10:33:00,37.2,33.4,30.23,NNW,342,5.8,5.8,86,0.00,CLR,,0.00,WeatherDisplay:10.37,2013-02-08 16:33:00,
2013-02-08 10:38:00,37.2,33.1,30.24,NNW,336,6.9,6.9,85,0.00,CLR,,0.00,WeatherDisplay:10.37,2013-02-08 16:38:00,
2013-02-08 10:43:00,37.1,33.0,30.24,North,11,6.9,6.9,85,0.00,CLR,,0.00,WeatherDisplay:10.37,2013-02-08 16:43:00,
2013-02-08 10:48:00,37.1,33.0,30.24,NNW,348,5.8,5.8,85,0.00,CLR,,0.00,WeatherDisplay:10.37,2013-02-08 16:48:00,
2013-02-08 10:53:00,37.1,32.7,30.24,North,5,8.1,8.1,84,0.00,CLR,,0.00,WeatherDisplay:10.37,2013-02-08 16:53:00,
2013-02-08 10:58:00,37.1,32.7,30.24,North,350,10.4,10.4,84,0.00,CLR,,0.00,WeatherDisplay:10.37,2013-02-08 16:58:00,
2013-02-08 11:04:00,37.1,32.7,30.24,North,355,4.6,4.6,84,0.00,CLR,,0.00,WeatherDisplay:10.37,2013-02-08 17:04:00,
2013-02-08 11:09:00,37.2,32.8,30.25,NNE,23,4.6,4.6,84,0.00,CLR,,0.00,WeatherDisplay:10.37,2013-02-08 17:09:00,
2013-02-08 11:14:00,37.3,32.3,30.24,North,5,6.9,6.9,82,0.00,CLR,,0.00,WeatherDisplay:10.37,2013-02-08 17:14:00,
2013-02-08 11:19:00,37.4,32.1,30.24,NNW,342,3.5,3.5,81,0.00,CLR,,0.00,WeatherDisplay:10.37,2013-02-08 17:19:00,
2013-02-08 11:24:00,37.6,32.3,30.24,NNW,330,3.5,3.5,81,0.00,CLR,,0.00,WeatherDisplay:10.37,2013-02-08 17:24:00,
2013-02-08 11:29:00,37.9,32.6,30.24,NNE,15,5.0,5.0,81,0.00,CLR,,0.00,WeatherDisplay:10.37,2013-02-08 17:29:00,
2013-02-08 11:34:00,38.0,32.4,30.25,North,5,3.5,3.5,80,0.00,CLR,,0.00,WeatherDisplay:10.37,2013-02-08 17:34:00,
2013-02-08 11:39:00,38.1,32.5,30.25,NNW,344,8.1,8.1,80,0.00,CLR,,0.00,WeatherDisplay:10.37,2013-02-08 17:39:00,
2013-02-08 11:44:00,38.2,32.6,30.24,North,355,4.6,4.6,80,0.00,CLR,,0.00,WeatherDisplay:10.37,2013-02-08 17:44:00,
2013-02-08 11:49:00,38.4,32.8,30.25,North,355,4.6,4.6,80,0.00,CLR,,0.00,WeatherDisplay:10.37,2013-02-08 17:49:00,
2013-02-08 11:54:00,38.5,32.9,30.25,North,350,6.9,6.9,80,0.00,CLR,,0.00,WeatherDisplay:10.37,2013-02-08 17:54:00,
2013-02-08 11:59:00,38.8,32.8,30.25,North,351,4.6,4.6,79,0.00,CLR,,0.00,WeatherDisplay:10.37,2013-02-08 17:59:00,
2013-02-08 12:04:00,38.9,32.9,30.24,North,5,5.8,5.8,79,0.00,CLR,,0.00,WeatherDisplay:10.37,2013-02-08 18:04:00,
2013-02-08 12:09:00,39.1,33.1,30.24,NW,306,2.3,2.3,79,0.00,CLR,,0.00,WeatherDisplay:10.37,2013-02-08 18:09:00,
2013-02-08 12:14:00,39.1,32.8,30.24,North,5,5.8,5.8,78,0.00,CLR,,0.00,WeatherDisplay:10.37,2013-02-08 18:14:00,
2013-02-08 12:19:00,39.1,32.8,30.24,NNE,15,5.8,5.8,78,0.00,CLR,,0.00,WeatherDisplay:10.37,2013-02-08 18:19:00,
2013-02-08 12:24:00,39.0,32.4,30.24,NW,309,4.6,4.6,77,0.00,CLR,,0.00,WeatherDisplay:10.37,2013-02-08 18:24:00,
2013-02-08 12:29:00,39.1,32.8,30.23,North,355,2.0,2.0,78,0.00,CLR,,0.00,WeatherDisplay:10.37,2013-02-08 18:29:00,
2013-02-08 12:35:00,39.3,33.0,30.23,North,5,5.8,5.8,78,0.00,CLR,,0.00,WeatherDisplay:10.37,2013-02-08 18:35:00,
2013-02-08 12:40:00,39.5,33.2,30.23,NNW,336,2.3,2.3,78,0.00,CLR,,0.00,WeatherDisplay:10.37,2013-02-08 18:40:00,
2013-02-08 12:45:00,39.8,33.5,30.24,NW,316,4.0,4.0,78,0.00,CLR,,0.00,WeatherDisplay:10.37,2013-02-08 18:45:00,
2013-02-08 12:50:00,39.8,32.8,30.23,North,360,7.0,7.0,76,0.00,CLR,,0.00,WeatherDisplay:10.37,2013-02-08 18:50:00,
2013-02-08 12:55:00,39.6,32.7,30.24,North,5,4.6,4.6,76,0.00,CLR,,0.00,WeatherDisplay:10.37,2013-02-08 18:55:00,
2013-02-08 13:00:00,39.6,33.0,30.24,NNE,15,5.0,5.0,77,0.00,CLR,,0.00,WeatherDisplay:10.37,2013-02-08 19:00:00,
2013-02-08 13:05:00,39.7,33.1,30.24,North,355,3.5,3.5,77,0.00,CLR,,0.00,WeatherDisplay:10.37,2013-02-08 19:05:00,
2013-02-08 13:10:00,39.8,33.2,30.24,North,9,3.5,3.5,77,0.00,CLR,,0.00,WeatherDisplay:10.37,2013-02-08 19:10:00,
2013-02-08 13:15:00,40.0,33.4,30.24,North,355,5.0,5.0,77,0.00,CLR,,0.00,WeatherDisplay:10.37,2013-02-08 19:15:00,
2013-02-08 13:20:00,39.9,32.9,30.23,North,355,2.3,2.3,76,0.00,CLR,,0.00,WeatherDisplay:10.37,2013-02-08 19:20:00,
2013-02-08 13:25:00,39.9,33.3,30.23,NW,315,5.8,5.8,77,0.00,CLR,,0.00,WeatherDisplay:10.37,2013-02-08 19:25:00,
2013-02-08 13:30:00,40.0,33.4,30.23,North,9,6.9,6.9,77,0.00,CLR,,0.00,WeatherDisplay:10.37,2013-02-08 19:30:00,
2013-02-08 13:35:00,40.0,33.0,30.23,NNW,340,4.6,4.6,76,0.00,CLR,,0.00,WeatherDisplay:10.37,2013-02-08 19:35:00,
2013-02-08 13:40:00,40.3,33.3,30.23,NW,320,8.1,8.1,76,0.00,CLR,,0.00,WeatherDisplay:10.37,2013-02-08 19:40:00,
2013-02-08 13:45:00,40.7,33.4,30.23,NNE,12,3.5,3.5,75,0.00,CLR,,0.00,WeatherDisplay:10.37,2013-02-08 19:45:00,
2013-02-08 13:50:00,40.7,33.4,30.23,North,355,3.5,3.5,75,0.00,CLR,,0.00,WeatherDisplay:10.37,2013-02-08 19:50:00,
2013-02-08 13:55:00,40.9,33.6,30.23,NNE,24,3.5,3.5,75,0.00,CLR,,0.00,WeatherDisplay:10.37,2013-02-08 19:55:00,
2013-02-08 14:00:00,40.6,32.6,30.23,NNE,18,2.3,2.3,73,0.00,CLR,,0.00,WeatherDisplay:10.37,2013-02-08 20:00:00,
2013-02-08 14:05:00,40.6,32.6,30.23,NNW,344,5.8,5.8,73,0.00,CLR,,0.00,WeatherDisplay:10.37,2013-02-08 20:05:00,
2013-02-08 14:10:00,40.6,32.6,30.23,NW,322,10.0,10.0,73,0.00,CLR,,0.00,WeatherDisplay:10.37,2013-02-08 20:10:00,
2013-02-08 14:15:00,40.4,32.8,30.23,NW,317,4.6,4.6,74,0.00,CLR,,0.00,WeatherDisplay:10.37,2013-02-08 20:15:00,
2013-02-08 14:20:00,40.5,32.9,30.23,NW,317,2.0,2.0,74,0.00,CLR,,0.00,WeatherDisplay:10.37,2013-02-08 20:20:00,
2013-02-08 14:25:00,40.6,33.0,30.24,NNW,341,5.0,5.0,74,0.00,CLR,,0.00,WeatherDisplay:10.37,2013-02-08 20:25:00,
2013-02-08 14:30:00,40.6,33.0,30.23,NNW,344,3.0,3.0,74,0.00,CLR,,0.00,WeatherDisplay:10.37,2013-02-08 20:30:00,
2013-02-08 14:35:00,40.6,32.6,30.23,NNW,347,3.5,3.5,73,0.00,CLR,,0.00,WeatherDisplay:10.37,2013-02-08 20:35:00,
2013-02-08 14:40:00,40.8,33.2,30.24,NNW,340,3.5,3.5,74,0.00,CLR,,0.00,WeatherDisplay:10.37,2013-02-08 20:40:00,
2013-02-08 14:45:00,40.9,32.9,30.24,NNE,13,4.6,4.6,73,0.00,CLR,,0.00,WeatherDisplay:10.37,2013-02-08 20:45:00,
2013-02-08 14:50:00,40.9,32.6,30.24,NNW,334,1.1,0.0,72,0.00,CLR,,0.00,WeatherDisplay:10.37,2013-02-08 20:50:00,
2013-02-08 14:55:00,41.0,32.7,30.24,North,360,2.3,2.3,72,0.00,CLR,,0.00,WeatherDisplay:10.37,2013-02-08 20:55:00,
2013-02-08 15:00:00,41.5,33.1,30.24,North,5,4.6,4.6,72,0.00,CLR,,0.00,WeatherDisplay:10.37,2013-02-08 21:00:00,
2013-02-08 15:05:00,41.3,32.6,30.24,North,11,5.8,5.8,71,0.00,CLR,,0.00,WeatherDisplay:10.37,2013-02-08 21:05:00,
2013-02-08 15:10:00,41.3,33.0,30.25,NNW,337,1.1,1.1,72,0.00,CLR,,0.00,WeatherDisplay:10.37,2013-02-08 21:10:00,
2013-02-08 15:15:00,41.3,33.0,30.25,WNW,300,11.5,11.5,72,0.00,CLR,,0.00,WeatherDisplay:10.37,2013-02-08 21:15:00,
2013-02-08 15:20:00,41.1,32.8,30.25,North,351,4.6,4.6,72,0.00,CLR,,0.00,WeatherDisplay:10.37,2013-02-08 21:20:00,
2013-02-08 15:25:00,41.1,32.8,30.25,NNW,339,4.6,4.6,72,0.00,CLR,,0.00,WeatherDisplay:10.37,2013-02-08 21:25:00,
2013-02-08 15:30:00,41.1,32.8,30.25,North,5,3.5,3.5,72,0.00,CLR,,0.00,WeatherDisplay:10.37,2013-02-08 21:30:00,
2013-02-08 15:35:00,41.0,32.7,30.25,NNW,344,4.6,4.6,72,0.00,CLR,,0.00,WeatherDisplay:10.37,2013-02-08 21:35:00,
2013-02-08 15:40:00,41.1,32.4,30.24,North,360,5.8,5.8,71,0.00,CLR,,0.00,WeatherDisplay:10.37,2013-02-08 21:40:00,
2013-02-08 15:45:00,41.3,32.6,30.25,NNW,347,4.0,4.0,71,0.00,CLR,,0.00,WeatherDisplay:10.37,2013-02-08 21:45:00,
2013-02-08 15:50:00,41.1,32.4,30.25,North,355,3.5,3.5,71,0.00,CLR,,0.00,WeatherDisplay:10.37,2013-02-08 21:50:00,
2013-02-08 15:55:00,41.0,32.3,30.24,North,360,3.5,3.5,71,0.00,CLR,,0.00,WeatherDisplay:10.37,2013-02-08 21:55:00,
2013-02-08 16:00:00,40.9,32.2,30.24,North,9,5.8,5.8,71,0.00,CLR,,0.00,WeatherDisplay:10.37,2013-02-08 22:00:00,
2013-02-08 16:05:00,40.7,32.0,30.24,North,355,3.5,3.5,71,0.00,CLR,,0.00,WeatherDisplay:10.37,2013-02-08 22:05:00,
2013-02-08 16:10:00,40.8,32.5,30.24,NNW,345,2.3,2.3,72,0.00,CLR,,0.00,WeatherDisplay:10.37,2013-02-08 22:10:00,
2013-02-08 16:15:00,41.0,32.7,30.25,North,5,3.5,3.5,72,0.00,CLR,,0.00,WeatherDisplay:10.37,2013-02-08 22:15:00,
2013-02-08 16:20:00,40.8,32.1,30.25,North,350,5.8,5.8,71,0.00,CLR,,0.00,WeatherDisplay:10.37,2013-02-08 22:20:00,
2013-02-08 16:25:00,40.5,31.8,30.25,North,355,3.5,3.5,71,0.00,CLR,,0.00,WeatherDisplay:10.37,2013-02-08 22:25:00,
2013-02-08 16:30:00,40.4,31.7,30.26,NNW,342,3.5,3.5,71,0.00,CLR,,0.00,WeatherDisplay:10.37,2013-02-08 22:30:00,
2013-02-08 16:35:00,40.2,31.5,30.27,NW,325,3.5,3.5,71,0.00,CLR,,0.00,WeatherDisplay:10.37,2013-02-08 22:35:00,
2013-02-08 16:40:00,40.2,31.9,30.27,North,360,6.0,6.0,72,0.00,CLR,,0.00,WeatherDisplay:10.37,2013-02-08 22:40:00,
2013-02-08 16:45:00,40.1,31.8,30.27,North,5,3.5,3.5,72,0.00,CLR,,0.00,WeatherDisplay:10.37,2013-02-08 22:45:00,
2013-02-08 16:51:00,40.0,31.7,30.28,NNW,331,4.6,4.6,72,0.00,CLR,,0.00,WeatherDisplay:10.37,2013-02-08 22:51:00,
2013-02-08 16:55:00,39.9,31.6,30.28,North,5,2.3,2.3,72,0.00,CLR,,0.00,WeatherDisplay:10.37,2013-02-08 22:55:00,
2013-02-08 17:01:00,39.8,31.8,30.29,North,5,1.1,1.1,73,0.00,CLR,,0.00,WeatherDisplay:10.37,2013-02-08 23:01:00,
2013-02-08 17:06:00,39.8,31.8,30.29,NNW,329,3.5,3.5,73,0.00,CLR,,0.00,WeatherDisplay:10.37,2013-02-08 23:06:00,
2013-02-08 17:11:00,39.7,31.8,30.30,North,355,6.9,6.9,73,0.00,CLR,,0.00,WeatherDisplay:10.37,2013-02-08 23:11:00,
2013-02-08 17:16:00,39.6,32.0,30.31,NNW,329,2.3,2.3,74,0.00,CLR,,0.00,WeatherDisplay:10.37,2013-02-08 23:16:00,
2013-02-08 17:21:00,39.5,31.9,30.32,WNW,297,5.8,5.8,74,0.00,CLR,,0.00,WeatherDisplay:10.37,2013-02-08 23:21:00,
2013-02-08 17:26:00,39.3,31.7,30.32,NW,324,6.9,6.9,74,0.00,CLR,,0.00,WeatherDisplay:10.37,2013-02-08 23:26:00,
2013-02-08 17:31:00,39.2,31.3,30.31,North,350,3.5,3.5,73,0.00,CLR,,0.00,WeatherDisplay:10.37,2013-02-08 23:31:00,
2013-02-08 17:36:00,39.1,31.2,30.31,North,5,5.8,5.8,73,0.00,CLR,,0.00,WeatherDisplay:10.37,2013-02-08 23:36:00,
2013-02-08 17:41:00,39.0,31.1,30.30,North,5,3.5,3.5,73,0.00,CLR,,0.00,WeatherDisplay:10.37,2013-02-08 23:41:00,
2013-02-08 17:46:00,38.8,30.9,30.30,North,360,2.3,2.3,73,0.00,CLR,,0.00,WeatherDisplay:10.37,2013-02-08 23:46:00,
2013-02-08 17:51:00,38.6,31.0,30.31,North,351,3.5,3.5,74,0.00,CLR,,0.00,WeatherDisplay:10.37,2013-02-08 23:51:00,
2013-02-08 17:56:00,38.4,30.5,30.31,NW,319,2.3,2.3,73,0.00,CLR,,0.00,WeatherDisplay:10.37,2013-02-08 23:56:00,
2013-02-08 18:01:00,38.3,30.4,30.31,NNW,348,3.5,3.5,73,0.00,CLR,,0.00,WeatherDisplay:10.37,2013-02-09 00:01:00,
2013-02-08 18:06:00,38.2,30.6,30.31,North,5,0.0,0.0,74,0.00,CLR,,0.00,WeatherDisplay:10.37,2013-02-09 00:06:00,
2013-02-08 18:11:00,38.1,30.2,30.31,NNE,27,5.8,5.8,73,0.00,CLR,,0.00,WeatherDisplay:10.37,2013-02-09 00:11:00,
2013-02-08 18:16:00,38.0,30.1,30.31,NNE,17,3.5,3.5,73,0.00,CLR,,0.00,WeatherDisplay:10.37,2013-02-09 00:16:00,
2013-02-08 18:21:00,37.9,30.0,30.31,North,11,3.5,3.5,73,0.00,CLR,,0.00,WeatherDisplay:10.37,2013-02-09 00:21:00,
2013-02-08 18:26:00,37.8,30.3,30.31,North,5,1.1,1.1,74,0.00,CLR,,0.00,WeatherDisplay:10.37,2013-02-09 00:26:00,
2013-02-08 18:31:00,37.8,30.3,30.30,NNE,13,2.3,2.3,74,0.00,CLR,,0.00,WeatherDisplay:10.37,2013-02-09 00:31:00,
2013-02-08 18:36:00,37.7,30.2,30.29,NNE,32,2.3,2.3,74,0.00,CLR,,0.00,WeatherDisplay:10.37,2013-02-09 00:36:00,
2013-02-08 18:41:00,37.6,30.4,30.29,NNE,21,2.0,2.0,75,0.00,CLR,,0.00,WeatherDisplay:10.37,2013-02-09 00:41:00,
2013-02-08 18:46:00,37.4,30.2,30.28,NNE,31,2.3,2.3,75,0.00,CLR,,0.00,WeatherDisplay:10.37,2013-02-09 00:46:00,
2013-02-08 18:51:00,37.3,30.1,30.28,NNE,32,3.5,3.5,75,0.00,CLR,,0.00,WeatherDisplay:10.37,2013-02-09 00:51:00,
2013-02-08 18:56:00,37.1,30.2,30.28,North,9,3.5,3.5,76,0.00,CLR,,0.00,WeatherDisplay:10.37,2013-02-09 00:56:00,
2013-02-08 19:01:00,37.0,30.1,30.28,North,11,2.3,2.3,76,0.00,CLR,,0.00,WeatherDisplay:10.37,2013-02-09 01:01:00,
2013-02-08 19:06:00,37.0,30.5,30.27,NE,38,3.5,3.5,77,0.00,CLR,,0.00,WeatherDisplay:10.37,2013-02-09 01:06:00,
2013-02-08 19:11:00,36.9,30.4,30.26,NE,34,2.3,2.3,77,0.00,CLR,,0.00,WeatherDisplay:10.37,2013-02-09 01:11:00,
2013-02-08 19:16:00,36.8,30.3,30.26,NE,37,1.1,1.1,77,0.00,CLR,,0.00,WeatherDisplay:10.37,2013-02-09 01:16:00,
2013-02-08 19:21:00,36.7,30.2,30.26,NE,38,3.5,3.5,77,0.00,CLR,,0.00,WeatherDisplay:10.37,2013-02-09 01:21:00,
2013-02-08 19:26:00,36.6,29.7,30.27,NNE,26,3.5,3.5,76,0.00,CLR,,0.00,WeatherDisplay:10.37,2013-02-09 01:26:00,
2013-02-08 19:31:00,36.5,29.7,30.28,NNE,27,2.3,2.3,76,0.00,CLR,,0.00,WeatherDisplay:10.37,2013-02-09 01:31:00,
2013-02-08 19:36:00,36.4,29.6,30.28,NNE,30,1.1,0.0,76,0.00,CLR,,0.00,WeatherDisplay:10.37,2013-02-09 01:36:00,
2013-02-08 19:41:00,36.3,29.8,30.28,NNE,32,0.0,0.1,77,0.00,CLR,,0.00,WeatherDisplay:10.37,2013-02-09 01:41:00,
2013-02-08 19:46:00,36.3,29.5,30.28,North,360,3.5,3.5,76,0.00,CLR,,0.00,WeatherDisplay:10.37,2013-02-09 01:46:00,
2013-02-08 19:51:00,36.2,29.7,30.29,North,5,2.3,2.3,77,0.00,CLR,,0.00,WeatherDisplay:10.37,2013-02-09 01:51:00,
2013-02-08 19:56:00,36.1,29.6,30.29,NNE,26,3.5,3.5,77,0.00,CLR,,0.00,WeatherDisplay:10.37,2013-02-09 01:56:00,
2013-02-08 20:01:00,36.1,29.6,30.29,North,11,1.1,1.1,77,0.00,CLR,,0.00,WeatherDisplay:10.37,2013-02-09 02:01:00,
2013-02-08 20:06:00,36.1,29.6,30.29,North,5,3.5,3.5,77,0.00,CLR,,0.00,WeatherDisplay:10.37,2013-02-09 02:06:00,
2013-02-08 20:11:00,36.0,29.5,30.29,North,5,3.5,3.5,77,0.00,CLR,,0.00,WeatherDisplay:10.37,2013-02-09 02:11:00,
2013-02-08 20:16:00,36.0,29.5,30.29,North,5,0.0,0.0,77,0.00,CLR,,0.00,WeatherDisplay:10.37,2013-02-09 02:16:00,
2013-02-08 20:21:00,36.0,29.8,30.30,NNE,26,2.3,2.3,78,0.00,CLR,,0.00,WeatherDisplay:10.37,2013-02-09 02:21:00,
2013-02-08 20:26:00,35.9,29.7,30.30,NE,39,2.3,2.3,78,0.00,CLR,,0.00,WeatherDisplay:10.37,2013-02-09 02:26:00,
2013-02-08 20:31:00,35.9,29.7,30.30,NNE,26,1.1,1.1,78,0.00,CLR,,0.00,WeatherDisplay:10.37,2013-02-09 02:31:00,
2013-02-08 20:36:00,35.7,29.2,30.30,NE,36,3.5,3.5,77,0.00,CLR,,0.00,WeatherDisplay:10.37,2013-02-09 02:36:00,
2013-02-08 20:41:00,35.5,29.0,30.31,NE,40,4.6,4.6,77,0.00,CLR,,0.00,WeatherDisplay:10.37,2013-02-09 02:41:00,
2013-02-08 20:46:00,35.5,29.0,30.31,North,9,2.3,2.3,77,0.00,CLR,,0.00,WeatherDisplay:10.37,2013-02-09 02:46:00,
2013-02-08 20:51:00,35.4,28.9,30.31,NNE,30,1.1,1.1,77,0.00,CLR,,0.00,WeatherDisplay:10.37,2013-02-09 02:51:00,
2013-02-08 20:56:00,35.3,28.8,30.32,NNE,21,2.3,0.0,77,0.00,CLR,,0.00,WeatherDisplay:10.37,2013-02-09 02:56:00,
2013-02-08 21:01:00,35.3,29.1,30.32,NNE,24,2.3,2.3,78,0.00,CLR,,0.00,WeatherDisplay:10.37,2013-02-09 03:01:00,
2013-02-08 21:06:00,35.3,29.1,30.33,North,5,1.1,1.1,78,0.00,CLR,,0.00,WeatherDisplay:10.37,2013-02-09 03:06:00,
2013-02-08 21:11:00,35.3,29.1,30.33,North,9,2.3,2.3,78,0.00,CLR,,0.00,WeatherDisplay:10.37,2013-02-09 03:11:00,
2013-02-08 21:16:00,35.2,29.0,30.33,NNE,26,2.3,2.3,78,0.00,CLR,,0.00,WeatherDisplay:10.37,2013-02-09 03:16:00,
2013-02-08 21:21:00,35.2,29.0,30.32,NE,36,3.5,3.5,78,0.00,CLR,,0.00,WeatherDisplay:10.37,2013-02-09 03:21:00,
2013-02-08 21:26:00,35.1,28.9,30.32,NNE,13,3.0,3.0,78,0.00,CLR,,0.00,WeatherDisplay:10.37,2013-02-09 03:26:00,
2013-02-08 21:31:00,35.1,28.9,30.32,NNE,17,3.5,3.5,78,0.00,CLR,,0.00,WeatherDisplay:10.37,2013-02-09 03:31:00,
2013-02-08 21:36:00,35.1,28.9,30.32,NNE,19,3.5,3.5,78,0.00,CLR,,0.00,WeatherDisplay:10.37,2013-02-09 03:36:00,
2013-02-08 21:41:00,35.1,28.9,30.32,NNE,19,1.1,0.0,78,0.00,CLR,,0.00,WeatherDisplay:10.37,2013-02-09 03:41:00,
2013-02-08 21:46:00,35.1,28.9,30.32,NNE,19,1.1,0.0,78,0.00,CLR,,0.00,WeatherDisplay:10.37,2013-02-09 03:46:00,
2013-02-08 21:51:00,35.1,29.2,30.32,NNE,19,0.0,0.0,79,0.00,CLR,,0.00,WeatherDisplay:10.37,2013-02-09 03:51:00,
2013-02-08 21:56:00,35.1,29.2,30.33,NNE,21,1.1,1.1,79,0.00,CLR,,0.00,WeatherDisplay:10.37,2013-02-09 03:56:00,
2013-02-08 22:01:00,35.0,29.1,30.32,NNE,25,1.1,1.1,79,0.00,CLR,,0.00,WeatherDisplay:10.37,2013-02-09 04:01:00,
2013-02-08 22:06:00,34.9,28.7,30.32,NE,34,2.3,2.3,78,0.00,CLR,,0.00,WeatherDisplay:10.37,2013-02-09 04:06:00,
2013-02-08 22:12:00,34.9,28.7,30.32,NNE,12,2.3,2.3,78,0.00,CLR,,0.00,WeatherDisplay:10.37,2013-02-09 04:12:00,
2013-02-08 22:17:00,34.8,28.6,30.32,NE,44,2.3,2.3,78,0.00,CLR,,0.00,WeatherDisplay:10.37,2013-02-09 04:17:00,
2013-02-08 22:22:00,34.8,28.6,30.32,NE,37,1.1,0.0,78,0.00,CLR,,0.00,WeatherDisplay:10.37,2013-02-09 04:22:00,
2013-02-08 22:27:00,34.8,28.6,30.32,NE,35,1.1,1.1,78,0.00,CLR,,0.00,WeatherDisplay:10.37,2013-02-09 04:27:00,
2013-02-08 22:32:00,34.8,29.0,30.32,NNE,26,1.1,1.1,79,0.00,CLR,,0.00,WeatherDisplay:10.37,2013-02-09 04:32:00,
2013-02-08 22:37:00,34.7,28.5,30.32,NNE,26,1.1,1.1,78,0.00,CLR,,0.00,WeatherDisplay:10.37,2013-02-09 04:37:00,
2013-02-08 22:42:00,34.7,28.9,30.31,NNE,28,1.1,1.1,79,0.00,CLR,,0.00,WeatherDisplay:10.37,2013-02-09 04:42:00,
2013-02-08 22:47:00,34.7,28.9,30.31,NE,40,3.5,3.5,79,0.00,CLR,,0.00,WeatherDisplay:10.37,2013-02-09 04:47:00,
2013-02-08 22:52:00,34.8,29.0,30.31,NE,35,1.1,0.0,79,0.00,CLR,,0.00,WeatherDisplay:10.37,2013-02-09 04:52:00,
2013-02-08 22:57:00,34.7,28.9,30.31,NNE,17,1.1,1.1,79,0.00,CLR,,0.00,WeatherDisplay:10.37,2013-02-09 04:57:00,
2013-02-08 23:00:00,34.7,28.9,30.31,NNE,17,1.1,1.1,79,0.00,CLR,,0.00,WeatherDisplay:10.37,2013-02-09 05:00:00,
2013-02-08 23:05:00,34.7,29.2,30.32,NNE,17,0.0,0.0,80,0.00,CLR,,0.00,WeatherDisplay:10.37,2013-02-09 05:05:00,
2013-02-08 23:10:00,34.7,29.2,30.31,NNE,28,1.1,1.1,80,0.00,CLR,,0.00,WeatherDisplay:10.37,2013-02-09 05:10:00,
2013-02-08 23:15:00,34.7,29.2,30.31,NE,35,2.3,2.3,80,0.00,CLR,,0.00,WeatherDisplay:10.37,2013-02-09 05:15:00,
2013-02-08 23:20:00,34.7,29.2,30.31,NE,38,2.3,0.0,80,0.00,CLR,,0.00,WeatherDisplay:10.37,2013-02-09 05:20:00,
2013-02-08 23:25:00,34.7,29.2,30.31,North,355,1.0,1.0,80,0.00,CLR,,0.00,WeatherDisplay:10.37,2013-02-09 05:25:00,
2013-02-08 23:30:00,34.6,29.1,30.31,NNE,17,3.5,3.5,80,0.00,CLR,,0.00,WeatherDisplay:10.37,2013-02-09 05:30:00,
2013-02-08 23:35:00,34.5,28.7,30.31,NNE,30,2.3,2.3,79,0.00,CLR,,0.00,WeatherDisplay:10.37,2013-02-09 05:35:00,
2013-02-08 23:40:00,34.5,28.7,30.31,NE,38,2.3,2.3,79,0.00,CLR,,0.00,WeatherDisplay:10.37,2013-02-09 05:40:00,
2013-02-08 23:45:00,34.5,29.0,30.31,NE,38,0.0,0.0,80,0.00,CLR,,0.00,WeatherDisplay:10.37,2013-02-09 05:45:00,
2013-02-08 23:50:00,34.5,29.0,30.31,NE,38,1.1,1.1,80,0.00,CLR,,0.00,WeatherDisplay:10.37,2013-02-09 05:50:00,
2013-02-08 23:55:00,34.4,28.9,30.31,ENE,66,3.5,3.5,80,0.00,CLR,,0.00,WeatherDisplay:10.37,2013-02-09 05:55:00,